Location: Unspecified
(0.0000°N, 0.0000°E)
Time: 07:34:35
(UTC+00:00)

ATLAS 5 CENTAUR DEB - Pass Details

Date: 10 December 2025
Orbit: 9604 x 35045 km, 12.6° (Epoch: 17 August)

Event Time Altitude Azimuth Distance (km) Brightness Sun altitude
Rises 00:08:49 0° 258° (WSW) 17,598 ? -66.8°
Reaches altitude 10° 00:22:05 10° 259° (W) 17,915 ? -66.0°
Maximum altitude 11:59:20 87° 197° (SSW) 11,886 ? 67.0°
Drops below altitude 10° 12:59:14 10° 105° (ESE) 13,858 ? 61.9°
Sets 13:10:00 0° 104° (ESE) 15,473 ? 60.4°
